QPF
0.00 0.00 0.01 0.01 0.01 0.01 0.01 0.02 0.02 0.02 0.02 0.02 0.03 0.03 0.03 0.03 0.03 0.02 0.01 0.01 0.00 0.00 0.00 0.00 0.00 0.00 0.00 0.01 0.01 0.02 0.04 0.06 0.04 0.05 0.09 0.12 0.13 0.09 0.08 0.05 0.04 0.03 0.03
0.00 0.00 0.00 0.00 0.00 0.00 0.00 0.00 0.00 0.00 0.01 0.01 0.02 0.02 0.02 0.02 0.02 0.02 0.02 0.01 0.01 0.00 0.00 0.00 0.00 0.00 0.00 0.01 0.01 0.03 0.05 0.06 0.05 0.07 0.10 0.12 0.12 0.10 0.09 0.08 0.05 0.03 0.02
0.00 0.00 0.00 0.00 0.00 0.00 0.00 0.00 0.00 0.00 0.00 0.00 0.01 0.01 0.02 0.02 0.02 0.02 0.02 0.02 0.01 0.01 0.01 0.01 0.00 0.00 0.00 0.00 0.01 0.02 0.04 0.06 0.07 0.07 0.08 0.12 0.12 0.10 0.10 0.08 0.05 0.03 0.01
0.00 0.00 0.00 0.00 0.00 0.00 0.00 0.00 0.00 0.00 0.00 0.00 0.00 0.00 0.01 0.01 0.01 0.02 0.03 0.02 0.02 0.02 0.01 0.01 0.00 0.00 0.00 0.00 0.00 0.01 0.03 0.05 0.07 0.07 0.08 0.11 0.13 0.12 0.10 0.07 0.06 0.04 0.02
0.00 0.00 0.00 0.00 0.00 0.00 0.00 0.00 0.00 0.00 0.00 0.00 0.00 0.00 0.00 0.01 0.01 0.02 0.02 0.03 0.02 0.02 0.02 0.01 0.01 0.01 0.00 0.00 0.00 0.01 0.02 0.04 0.05 0.05 0.06 0.08 0.11 0.13 0.10 0.06 0.05 0.04 0.03
0.00 0.00 0.00 0.00 0.00 0.00 0.00 0.00 0.00 0.01 0.01 0.01 0.00 0.00 0.00 0.00 0.01 0.01 0.02 0.02 0.02 0.02 0.03 0.02 0.02 0.01 0.01 0.00 0.00 0.01 0.02 0.03 0.03 0.04 0.05 0.06 0.07 0.07 0.09 0.09 0.06 0.05 0.04
0.00 0.00 0.00 0.00 0.00 0.00 0.00 0.00 0.01 0.01 0.01 0.01 0.01 0.01 0.00 0.00 0.01 0.01 0.02 0.02 0.02 0.02 0.03 0.03 0.03 0.02 0.01 0.00 0.00 0.00 0.01 0.02 0.03 0.03 0.04 0.04 0.06 0.06 0.07 0.07 0.07 0.05 0.04
0.00 0.00 0.00 0.00 0.00 0.00 0.00 0.01 0.01 0.01 0.01 0.01 0.01 0.01 0.01 0.00 0.00 0.01 0.02 0.02 0.03 0.03 0.04 0.04 0.03 0.02 0.01 0.01 0.00 0.00 0.01 0.02 0.02 0.02 0.04 0.05 0.07 0.07 0.06 0.05 0.05 0.05 0.04
0.00 0.00 0.00 0.00 0.00 0.00 0.00 0.00 0.01 0.01 0.01 0.01 0.01 0.01 0.01 0.00 0.01 0.01 0.02 0.02 0.04 0.05 0.05 0.05 0.03 0.02 0.02 0.01 0.01 0.01 0.01 0.02 0.03 0.04 0.05 0.07 0.11 0.11 0.08 0.05 0.04 0.04 0.05
0.00 0.00 0.00 0.00 0.00 0.00 0.00 0.00 0.00 0.01 0.01 0.01 0.00 0.01 0.01 0.01 0.01 0.01 0.02 0.03 0.06 0.08 0.08 0.07 0.06 0.04 0.03 0.02 0.01 0.01 0.02 0.02 0.03 0.04 0.05 0.06 0.07 0.08 0.08 0.04 0.03 0.02 0.02
0.01 0.01 0.01 0.01 0.01 0.01 0.01 0.01 0.01 0.01 0.01 0.01 0.01 0.01 0.01 0.02 0.01 0.01 0.02 0.04 0.08 0.13 0.15 0.12 0.11 0.08 0.05 0.03 0.02 0.02 0.02 0.02 0.03 0.04 0.05 0.05 0.06 0.05 0.04 0.03 0.02 0.01 0.01
0.01 0.01 0.01 0.01 0.01 0.01 0.01 0.01 0.01 0.01 0.01 0.00 0.00 0.01 0.02 0.02 0.02 0.01 0.03 0.05 0.08 0.16 0.22 0.22 0.20 0.14 0.09 0.05 0.04 0.04 0.04 0.03 0.02 0.03 0.04 0.05 0.05 0.05 0.03 0.02 0.02 0.01 0.01
0.01 0.01 0.01 0.01 0.01 0.01 0.01 0.01 0.01 0.01 0.01 0.01 0.01 0.01 0.02 0.03 0.03 0.02 0.03 0.06 0.09 0.15 0.26 0.31 0.28 0.20 0.12 0.07 0.06 0.06 0.05 0.03 0.03 0.03 0.03 0.03 0.03 0.04 0.03 0.03 0.02 0.01 0.00
0.02 0.02 0.01 0.01 0.01 0.01 0.01 0.01 0.01 0.01 0.01 0.01 0.01 0.01 0.02 0.04 0.05 0.04 0.05 0.07 0.11 0.17 0.27 0.35 0.35 0.27 0.17 0.10 0.07 0.05 0.04 0.04 0.04 0.03 0.02 0.02 0.02 0.02 0.02 0.02 0.01 0.01 0.00
0.03 0.03 0.02 0.02 0.02 0.02 0.01 0.01 0.01 0.01 0.01 0.01 0.01 0.01 0.02 0.03 0.04 0.04 0.06 0.07 0.12 0.21 0.32 0.44 0.40 0.30 0.18 0.10 0.06 0.04 0.04 0.05 0.04 0.03 0.02 0.02 0.01 0.01 0.01 0.01 0.01 0.00 0.00
0.05 0.04 0.03 0.03 0.03 0.03 0.02 0.02 0.01 0.01 0.00 0.00 0.00 0.00 0.01 0.01 0.01 0.02 0.07 0.08 0.12 0.23 0.34 0.45 0.40 0.27 0.16 0.10 0.07 0.04 0.03 0.03 0.02 0.02 0.01 0.01 0.01 0.01 0.01 0.01 0.00 0.00 0.00
0.06 0.05 0.04 0.03 0.04 0.04 0.03 0.03 0.02 0.01 0.01 0.00 0.00 0.00 0.00 0.00 0.01 0.02 0.05 0.08 0.11 0.21 0.33 0.38 0.32 0.21 0.12 0.09 0.06 0.03 0.02 0.01 0.01 0.01 0.01 0.00 0.01 0.01 0.01 0.01 0.00 0.00 0.00
0.06 0.06 0.06 0.06 0.05 0.05 0.04 0.04 0.03 0.03 0.02 0.01 0.00 0.00 0.00 0.00 0.01 0.02 0.03 0.06 0.10 0.18 0.29 0.31 0.25 0.16 0.09 0.07 0.05 0.03 0.01 0.01 0.01 0.01 0.00 0.00 0.00 0.00 0.00 0.00 0.00 0.00 0.00
0.05 0.05 0.05 0.04 0.05 0.05 0.04 0.04 0.03 0.03 0.03 0.02 0.02 0.01 0.00 0.01 0.02 0.02 0.03 0.04 0.08 0.16 0.24 0.23 0.18 0.13 0.08 0.05 0.03 0.02 0.01 0.01 0.00 0.00 0.00 0.00 0.00 0.00 0.00 0.00 0.00 0.00 0.00
0.04 0.05 0.06 0.05 0.05 0.05 0.04 0.03 0.03 0.02 0.03 0.03 0.03 0.03 0.01 0.02 0.02 0.02 0.03 0.04 0.09 0.13 0.17 0.15 0.12 0.09 0.05 0.03 0.01 0.01 0.01 0.00 0.00 0.00 0.00 0.00 0.00 0.00 0.00 0.00 0.00 0.00 0.00
0.05 0.05 0.06 0.05 0.04 0.03 0.03 0.03 0.03 0.03 0.04 0.04 0.04 0.03 0.02 0.02 0.02 0.02 0.02 0.04 0.07 0.11 0.11 0.09 0.07 0.05 0.03 0.01 0.00 0.00 0.00 0.00 0.00 0.00 0.00 0.00 0.00 0.00 0.00 0.00 0.00 0.00 0.00
0.07 0.05 0.04 0.04 0.03 0.03 0.03 0.03 0.03 0.04 0.04 0.04 0.04 0.02 0.03 0.02 0.01 0.01 0.01 0.03 0.06 0.07 0.06 0.05 0.04 0.02 0.01 0.00 0.00 0.00 0.00 0.00 0.00 0.00 0.00 0.00 0.00 0.00 0.00 0.00 0.00 0.00 0.00
0.08 0.05 0.04 0.04 0.04 0.03 0.03 0.03 0.03 0.04 0.04 0.04 0.03 0.02 0.02 0.02 0.01 0.01 0.01 0.03 0.04 0.04 0.03 0.02 0.02 0.01 0.00 0.00 0.00 0.00 0.00 0.00 0.00 0.00 0.00 0.00 0.00 0.00 0.00 0.00 0.00 0.00 0.00
0.10 0.08 0.05 0.04 0.05 0.05 0.03 0.03 0.02 0.03 0.03 0.03 0.03 0.02 0.02 0.02 0.02 0.01 0.01 0.02 0.03 0.02 0.01 0.01 0.01 0.00 0.00 0.00 0.00 0.00 0.00 0.00 0.00 0.00 0.00 0.00 0.00 0.00 0.00 0.00 0.00 0.00 0.00
0.10 0.08 0.05 0.04 0.05 0.05 0.03 0.03 0.02 0.02 0.02 0.02 0.02 0.02 0.02 0.02 0.02 0.01 0.01 0.02 0.02 0.01 0.00 0.00 0.00 0.00 0.00 0.00 0.00 0.00 0.00 0.00 0.00 0.00 0.00 0.00 0.00 0.00 0.00 0.00 0.00 0.00 0.00
0.08 0.07 0.05 0.04 0.03 0.02 0.02 0.02 0.02 0.02 0.02 0.02 0.02 0.02 0.02 0.02 0.01 0.01 0.01 0.01 0.01 0.00 0.00 0.00 0.00 0.00 0.00 0.00 0.00 0.00 0.00 0.00 0.00 0.00 0.00 0.00 0.00 0.00 0.00 0.00 0.00 0.00 0.00
MSLP
1012.58 1012.46 1012.35 1012.22 1012.09 1011.94 1011.77 1011.59 1011.39 1011.19 1010.97 1010.75 1010.52 1010.29 1010.04 1009.79 1009.54 1009.29 1009.06 1008.84 1008.65 1008.49 1008.34 1008.20 1008.08 1007.97 1007.88 1007.81 1007.78 1007.81 1007.90 1008.06 1008.30 1008.59 1008.92 1009.28 1009.64 1009.97 1010.27 1010.52 1010.73 1010.89 1011.01
1012.14 1012.01 1011.91 1011.82 1011.73 1011.64 1011.54 1011.42 1011.28 1011.12 1010.93 1010.71 1010.47 1010.21 1009.93 1009.65 1009.35 1009.07 1008.79 1008.53 1008.28 1008.05 1007.83 1007.61 1007.41 1007.23 1007.07 1006.97 1006.94 1006.99 1007.14 1007.40 1007.75 1008.18 1008.66 1009.15 1009.63 1010.07 1010.45 1010.78 1011.03 1011.23 1011.37
1011.43 1011.31 1011.23 1011.17 1011.13 1011.09 1011.05 1010.99 1010.91 1010.79 1010.64 1010.44 1010.21 1009.95 1009.67 1009.37 1009.07 1008.76 1008.47 1008.19 1007.91 1007.64 1007.36 1007.09 1006.83 1006.58 1006.38 1006.24 1006.20 1006.27 1006.46 1006.78 1007.21 1007.74 1008.32 1008.92 1009.50 1010.04 1010.50 1010.90 1011.22 1011.48 1011.67
1010.51 1010.40 1010.34 1010.31 1010.30 1010.30 1010.31 1010.30 1010.26 1010.19 1010.08 1009.93 1009.73 1009.49 1009.22 1008.94 1008.65 1008.36 1008.08 1007.79 1007.51 1007.23 1006.93 1006.64 1006.34 1006.06 1005.83 1005.67 1005.62 1005.68 1005.90 1006.25 1006.73 1007.31 1007.96 1008.63 1009.28 1009.89 1010.43 1010.89 1011.29 1011.61 1011.88
1009.44 1009.35 1009.29 1009.27 1009.29 1009.31 1009.35 1009.37 1009.38 1009.35 1009.29 1009.18 1009.03 1008.84 1008.61 1008.37 1008.11 1007.85 1007.59 1007.33 1007.07 1006.80 1006.52 1006.22 1005.93 1005.65 1005.41 1005.25 1005.19 1005.27 1005.48 1005.84 1006.34 1006.94 1007.61 1008.31 1009.00 1009.65 1010.24 1010.76 1011.22 1011.63 1011.98
1008.34 1008.24 1008.18 1008.15 1008.16 1008.19 1008.24 1008.29 1008.32 1008.34 1008.33 1008.27 1008.18 1008.04 1007.87 1007.67 1007.46 1007.24 1007.02 1006.80 1006.57 1006.33 1006.08 1005.82 1005.56 1005.31 1005.10 1004.96 1004.91 1004.99 1005.21 1005.57 1006.06 1006.64 1007.31 1008.00 1008.70 1009.36 1009.98 1010.55 1011.06 1011.53 1011.96
1007.29 1007.17 1007.08 1007.03 1007.02 1007.03 1007.07 1007.13 1007.19 1007.25 1007.28 1007.28 1007.24 1007.17 1007.05 1006.91 1006.74 1006.57 1006.38 1006.20 1006.01 1005.82 1005.61 1005.40 1005.19 1004.99 1004.83 1004.74 1004.73 1004.83 1005.06 1005.41 1005.88 1006.44 1007.08 1007.75 1008.42 1009.08 1009.71 1010.30 1010.85 1011.37 1011.87
1006.35 1006.20 1006.07 1005.98 1005.93 1005.91 1005.94 1005.99 1006.07 1006.15 1006.23 1006.28 1006.30 1006.28 1006.21 1006.12 1005.99 1005.86 1005.71 1005.56 1005.41 1005.25 1005.10 1004.95 1004.81 1004.68 1004.59 1004.56 1004.60 1004.74 1004.99 1005.35 1005.80 1006.34 1006.94 1007.58 1008.22 1008.86 1009.47 1010.06 1010.63 1011.18 1011.72
1005.55 1005.35 1005.18 1005.04 1004.94 1004.89 1004.89 1004.93 1005.01 1005.12 1005.23 1005.32 1005.39 1005.42 1005.40 1005.34 1005.25 1005.14 1005.02 1004.90 1004.78 1004.67 1004.57 1004.48 1004.41 1004.36 1004.35 1004.39 1004.51 1004.70 1004.99 1005.36 1005.82 1006.35 1006.92 1007.53 1008.14 1008.74 1009.33 1009.90 1010.46 1011.02 1011.58
1004.85 1004.61 1004.38 1004.19 1004.05 1003.96 1003.93 1003.96 1004.05 1004.17 1004.30 1004.43 1004.54 1004.60 1004.63 1004.60 1004.54 1004.46 1004.36 1004.26 1004.17 1004.10 1004.04 1004.01 1004.01 1004.04 1004.11 1004.24 1004.43 1004.70 1005.03 1005.44 1005.92 1006.45 1007.02 1007.60 1008.18 1008.75 1009.31 1009.86 1010.39 1010.93 1011.47
1004.21 1003.92 1003.65 1003.41 1003.23 1003.11 1003.06 1003.08 1003.16 1003.29 1003.44 1003.60 1003.73 1003.83 1003.89 1003.90 1003.87 1003.82 1003.74 1003.67 1003.61 1003.57 1003.56 1003.58 1003.65 1003.75 1003.90 1004.11 1004.38 1004.72 1005.12 1005.58 1006.09 1006.64 1007.21 1007.79 1008.36 1008.91 1009.43 1009.94 1010.43 1010.93 1011.43
1003.56 1003.23 1002.92 1002.66 1002.44 1002.30 1002.23 1002.24 1002.32 1002.45 1002.61 1002.79 1002.95 1003.09 1003.18 1003.23 1003.24 1003.22 1003.18 1003.14 1003.12 1003.12 1003.15 1003.23 1003.35 1003.52 1003.74 1004.03 1004.37 1004.78 1005.24 1005.76 1006.32 1006.90 1007.49 1008.08 1008.64 1009.17 1009.67 1010.13 1010.58 1011.02 1011.47
1002.86 1002.50 1002.17 1001.88 1001.65 1001.49 1001.41 1001.42 1001.49 1001.63 1001.80 1001.99 1002.18 1002.35 1002.48 1002.58 1002.63 1002.66 1002.67 1002.69 1002.71 1002.76 1002.84 1002.96 1003.13 1003.36 1003.64 1003.99 1004.39 1004.86 1005.38 1005.95 1006.56 1007.18 1007.81 1008.41 1008.98 1009.50 1009.97 1010.40 1010.80 1011.18 1011.56
1002.11 1001.73 1001.38 1001.08 1000.84 1000.68 1000.60 1000.59 1000.67 1000.81 1000.99 1001.20 1001.42 1001.62 1001.80 1001.94 1002.06 1002.15 1002.22 1002.30 1002.38 1002.48 1002.61 1002.78 1003.00 1003.27 1003.60 1003.98 1004.43 1004.95 1005.52 1006.13 1006.78 1007.44 1008.09 1008.72 1009.30 1009.82 1010.29 1010.69 1011.05 1011.38 1011.70
1001.34 1000.93 1000.57 1000.27 1000.03 999.87 999.79 999.79 999.87 1000.01 1000.21 1000.43 1000.68 1000.92 1001.14 1001.34 1001.52 1001.68 1001.83 1001.97 1002.11 1002.27 1002.45 1002.67 1002.92 1003.22 1003.58 1003.99 1004.47 1005.01 1005.61 1006.25 1006.93 1007.62 1008.30 1008.95 1009.55 1010.09 1010.55 1010.95 1011.28 1011.58 1011.86
1000.58 1000.15 999.79 999.49 999.26 999.10 999.03 999.04 999.13 999.28 999.49 999.74 1000.01 1000.28 1000.55 1000.81 1001.05 1001.28 1001.49 1001.69 1001.90 1002.11 1002.33 1002.58 1002.86 1003.18 1003.55 1003.97 1004.46 1005.01 1005.62 1006.28 1006.97 1007.68 1008.39 1009.06 1009.68 1010.23 1010.71 1011.12 1011.46 1011.75 1012.02
999.88 999.45 999.08 998.78 998.56 998.42 998.37 998.40 998.50 998.67 998.89 999.16 999.46 999.77 1000.08 1000.38 1000.67 1000.95 1001.21 1001.47 1001.71 1001.96 1002.21 1002.48 1002.77 1003.10 1003.47 1003.89 1004.38 1004.93 1005.53 1006.19 1006.89 1007.61 1008.33 1009.02 1009.67 1010.25 1010.75 1011.19 1011.55 1011.87 1012.15
999.29 998.84 998.47 998.18 997.97 997.86 997.83 997.88 998.01 998.21 998.46 998.75 999.07 999.41 999.75 1000.08 1000.41 1000.72 1001.01 1001.29 1001.56 1001.82 1002.08 1002.35 1002.64 1002.97 1003.33 1003.74 1004.22 1004.75 1005.35 1006.01 1006.70 1007.42 1008.15 1008.85 1009.52 1010.13 1010.68 1011.15 1011.56 1011.92 1012.24
998.82 998.35 997.97 997.68 997.49 997.40 997.41 997.50 997.67 997.90 998.19 998.51 998.86 999.23 999.59 999.94 1000.27 1000.59 1000.88 1001.16 1001.42 1001.67 1001.93 1002.19 1002.46 1002.77 1003.12 1003.52 1003.98 1004.51 1005.10 1005.74 1006.43 1007.14 1007.87 1008.59 1009.28 1009.92 1010.50 1011.03 1011.49 1011.91 1012.29
998.43 997.94 997.55 997.27 997.11 997.05 997.09 997.23 997.45 997.73 998.07 998.43 998.82 999.20 999.58 999.93 1000.26 1000.56 1000.83 1001.08 1001.31 1001.54 1001.76 1001.99 1002.25 1002.54 1002.87 1003.26 1003.71 1004.23 1004.80 1005.44 1006.12 1006.83 1007.55 1008.28 1008.98 1009.65 1010.27 1010.84 1011.36 1011.83 1012.27
998.10 997.58 997.19 996.91 996.77 996.74 996.83 997.02 997.30 997.65 998.04 998.45 998.88 999.29 999.67 1000.03 1000.34 1000.61 1000.84 1001.05 1001.23 1001.41 1001.59 1001.79 1002.02 1002.29 1002.61 1002.99 1003.44 1003.95 1004.52 1005.15 1005.82 1006.53 1007.25 1007.97 1008.68 1009.36 1010.00 1010.60 1011.17 1011.69 1012.17
997.80 997.26 996.84 996.57 996.44 996.45 996.58 996.83 997.17 997.58 998.04 998.51 998.98 999.42 999.82 1000.17 1000.46 1000.70 1000.89 1001.04 1001.17 1001.30 1001.44 1001.60 1001.80 1002.06 1002.37 1002.75 1003.20 1003.72 1004.29 1004.92 1005.58 1006.28 1006.99 1007.70 1008.39 1009.07 1009.72 1010.33 1010.91 1011.46 1011.96
997.53 996.96 996.52 996.24 996.12 996.15 996.32 996.62 997.02 997.49 998.01 998.54 999.05 999.52 999.94 1000.29 1000.57 1000.78 1000.93 1001.04 1001.12 1001.21 1001.30 1001.44 1001.62 1001.86 1002.18 1002.57 1003.02 1003.55 1004.13 1004.76 1005.41 1006.10 1006.79 1007.47 1008.15 1008.80 1009.43 1010.03 1010.59 1011.13 1011.63
997.32 996.71 996.25 995.96 995.83 995.87 996.06 996.39 996.83 997.35 997.92 998.49 999.05 999.55 999.99 1000.34 1000.61 1000.81 1000.93 1001.01 1001.06 1001.11 1001.19 1001.30 1001.48 1001.72 1002.04 1002.44 1002.92 1003.45 1004.04 1004.66 1005.31 1005.98 1006.64 1007.29 1007.92 1008.53 1009.12 1009.67 1010.20 1010.71 1011.18
997.22 996.59 996.10 995.77 995.63 995.66 995.85 996.19 996.65 997.19 997.78 998.38 998.96 999.48 999.94 1000.30 1000.57 1000.76 1000.88 1000.94 1000.98 1001.02 1001.09 1001.20 1001.38 1001.63 1001.97 1002.38 1002.87 1003.41 1004.00 1004.62 1005.26 1005.89 1006.52 1007.12 1007.70 1008.26 1008.78 1009.28 1009.75 1010.19 1010.62
997.31 996.64 996.13 995.78 995.60 995.60 995.77 996.09 996.53 997.05 997.64 998.24 998.82 999.35 999.80 1000.17 1000.45 1000.64 1000.77 1000.84 1000.88 1000.93 1001.00 1001.13 1001.32 1001.59 1001.94 1002.37 1002.86 1003.41 1004.00 1004.61 1005.22 1005.82 1006.40 1006.95 1007.47 1007.96 1008.41 1008.84 1009.24 1009.62 1009.98
Thickness
5628 5625 5623 5621 5619 5619 5618 5619 5621 5623 5626 5630 5633 5636 5640 5644 5649 5653 5658 5663 5665 5669 5672 5675 5679 5682 5684 5686 5687 5687 5687 5686 5683 5682 5682 5681 5679 5677 5674 5673 5673 5673 5673
5612 5608 5606 5604 5602 5600 5600 5602 5603 5605 5608 5611 5614 5618 5622 5628 5633 5638 5643 5650 5654 5658 5663 5667 5671 5675 5678 5680 5682 5683 5683 5684 5682 5679 5677 5676 5673 5670 5667 5665 5664 5663 5663
5595 5590 5586 5583 5580 5579 5579 5581 5582 5584 5587 5591 5594 5599 5604 5610 5616 5623 5629 5636 5642 5648 5654 5658 5663 5667 5670 5673 5676 5678 5680 5681 5680 5678 5675 5672 5668 5664 5660 5657 5655 5654 5654
5579 5573 5568 5565 5562 5560 5560 5559 5561 5563 5566 5570 5575 5580 5585 5591 5598 5606 5613 5621 5629 5636 5643 5649 5654 5659 5663 5667 5670 5673 5675 5676 5676 5675 5671 5668 5663 5659 5656 5651 5647 5646 5646
5567 5561 5557 5553 5550 5547 5545 5544 5545 5545 5548 5552 5556 5560 5566 5572 5581 5589 5596 5605 5613 5622 5630 5638 5645 5651 5657 5661 5665 5668 5670 5671 5671 5671 5668 5664 5660 5655 5651 5647 5642 5639 5637
5559 5555 5552 5548 5544 5541 5539 5537 5536 5535 5536 5537 5540 5544 5548 5556 5564 5571 5578 5587 5597 5606 5615 5625 5633 5641 5648 5654 5659 5662 5666 5667 5668 5668 5666 5662 5658 5653 5648 5643 5639 5635 5630
5553 5550 5547 5544 5541 5539 5538 5536 5534 5532 5531 5530 5531 5532 5536 5540 5547 5554 5561 5570 5579 5590 5600 5610 5620 5630 5636 5643 5649 5655 5659 5663 5666 5666 5664 5660 5656 5652 5646 5639 5635 5632 5630
5547 5544 5542 5539 5538 5536 5535 5533 5532 5530 5528 5527 5527 5527 5528 5532 5536 5540 5546 5553 5562 5573 5584 5596 5606 5616 5625 5632 5639 5644 5649 5654 5658 5660 5660 5658 5654 5649 5644 5639 5633 5627 5622
5539 5536 5535 5533 5531 5530 5529 5528 5527 5526 5525 5525 5525 5525 5525 5527 5530 5532 5536 5540 5547 5558 5569 5581 5593 5604 5614 5621 5629 5634 5639 5644 5649 5652 5653 5650 5647 5643 5639 5632 5626 5622 5614
5528 5527 5526 5524 5523 5522 5522 5522 5522 5521 5522 5522 5523 5522 5522 5523 5525 5527 5529 5531 5537 5546 5556 5568 5580 5591 5601 5609 5618 5625 5629 5634 5638 5640 5640 5639 5637 5634 5631 5629 5625 5619 5613
5517 5516 5514 5513 5513 5513 5514 5514 5515 5515 5516 5516 5518 5519 5519 5520 5522 5523 5524 5525 5529 5536 5544 5555 5567 5578 5588 5597 5607 5615 5622 5626 5629 5630 5630 5629 5627 5625 5622 5621 5619 5617 5612
5505 5504 5504 5503 5503 5506 5506 5506 5507 5508 5509 5510 5511 5513 5515 5517 5519 5521 5521 5522 5524 5528 5536 5544 5555 5566 5576 5586 5596 5603 5610 5615 5618 5619 5620 5619 5618 5616 5614 5613 5612 5611 5611
5495 5494 5493 5493 5494 5495 5496 5497 5499 5501 5502 5505 5506 5508 5510 5513 5515 5518 5518 5517 5519 5522 5529 5537 5546 5555 5565 5576 5584 5592 5600 5605 5608 5610 5609 5608 5608 5608 5606 5604 5602 5602 5602
5486 5485 5485 5484 5485 5486 5487 5490 5492 5495 5497 5500 5502 5503 5506 5508 5510 5512 5512 5512 5514 5517 5523 5530 5538 5546 5556 5566 5575 5583 5590 5596 5600 5601 5600 5599 5598 5598 5597 5598 5596 5595 5593
5480 5479 5479 5478 5479 5480 5481 5482 5486 5490 5493 5496 5498 5500 5502 5504 5508 5510 5509 5508 5509 5512 5516 5523 5530 5538 5548 5558 5567 5574 5580 5585 5589 5591 5593 5591 5589 5588 5587 5589 5589 5589 5586
5476 5475 5474 5473 5473 5474 5474 5477 5481 5485 5489 5493 5496 5498 5502 5505 5507 5506 5506 5506 5505 5507 5511 5518 5526 5533 5543 5553 5561 5567 5572 5578 5582 5584 5585 5584 5583 5582 5581 5581 5582 5582 5580
5473 5472 5471 5470 5469 5470 5471 5472 5476 5480 5485 5489 5492 5495 5497 5500 5502 5502 5501 5501 5501 5503 5508 5515 5523 5531 5540 5548 5556 5562 5567 5572 5576 5578 5578 5578 5578 5577 5576 5576 5576 5576 5575
5473 5472 5471 5469 5469 5468 5469 5472 5474 5477 5480 5484 5488 5491 5493 5495 5496 5497 5496 5496 5498 5501 5507 5514 5522 5530 5539 5546 5553 5559 5563 5567 5571 5573 5573 5573 5574 5574 5573 5572 5572 5573 5572
5473 5472 5470 5469 5468 5468 5469 5471 5473 5476 5479 5482 5484 5485 5488 5489 5490 5491 5493 5498 5501 5504 5508 5515 5522 5530 5538 5545 5552 5557 5562 5565 5567 5569 5569 5570 5571 5571 5570 5570 5571 5571 5571
5477 5476 5475 5471 5470 5469 5470 5472 5473 5476 5479 5482 5485 5484 5484 5486 5488 5489 5493 5498 5502 5506 5511 5518 5524 5532 5539 5546 5552 5557 5560 5563 5565 5566 5568 5569 5570 5571 5570 5570 5570 5570 5570
5482 5480 5480 5477 5474 5473 5474 5475 5477 5479 5481 5485 5487 5487 5488 5491 5492 5493 5496 5501 5505 5510 5515 5522 5528 5535 5542 5548 5553 5558 5561 5563 5565 5567 5568 5569 5570 5570 5570 5570 5571 5571 5570
5488 5485 5483 5482 5481 5480 5480 5481 5482 5483 5485 5488 5489 5489 5489 5494 5496 5497 5500 5505 5510 5515 5521 5527 5533 5540 5547 5553 5557 5560 5563 5564 5566 5568 5569 5570 5570 5570 5570 5570 5570 5569 5569
5496 5494 5491 5490 5488 5488 5487 5487 5488 5489 5490 5492 5493 5493 5493 5497 5500 5503 5506 5511 5515 5520 5526 5533 5539 5546 5553 5558 5562 5565 5567 5568 5570 5572 5571 5571 5571 5571 5571 5570 5569 5568 5567
5507 5503 5500 5498 5497 5495 5495 5494 5495 5496 5497 5498 5499 5500 5502 5504 5507 5510 5513 5517 5521 5527 5533 5540 5546 5553 5558 5562 5565 5569 5571 5573 5574 5574 5574 5573 5572 5572 5571 5570 5569 5568 5567
5518 5514 5511 5509 5507 5505 5503 5503 5503 5504 5504 5505 5506 5507 5509 5511 5514 5517 5521 5525 5530 5536 5542 5548 5554 5559 5563 5566 5569 5572 5574 5575 5576 5577 5576 5575 5574 5572 5571 5570 5568 5567 5565
5528 5525 5522 5520 5517 5515 5514 5512 5512 5512 5512 5512 5513 5514 5517 5519 5522 5525 5529 5535 5540 5545 5550 5555 5561 5565 5568 5571 5574 5575 5575 5576 5577 5578 5577 5576 5574 5572 5571 5569 5568 5566 5564